COSMOS 1275 DEB

Satellite information

Favourite Embed

Satellite Type and Status

DEBRISIN ORBIT

Key statistics

Satellite COSMOS 1275 DEB at a glance.

Uptime

16105

Days in orbit

Revolutions

≈ 14.1

Per day

Orbit

LEO

Low Earth Orbit

Inclination

83.0

Latest

Satellite identification and parameters

Extended collection of information and parameters for COSMOS 1275 DEB.

Object identification

Identified? True

Debris? True

Object name: COSMOS 1275 DEB

International designator: 1981-053TQ

Object number (NORAD): 42200

Object ID (CCSDS): 42200

Country: COMMONWEALTH OF INDEPENDENT STATES (CIS)

Current information (Y/N): Y

RCS size: SMALL

Orbital parameters

Period: 102.291 minutes

Inclination: 82.9821 deg

SMA: 7245.2 km

Apoapsis: 916.363 km

Periapsis: 817.768 km

RAAN: 41.1266 deg

Eccentricy: 0.0068041

Argument of periapsis: 101.7819 deg

Mean anomaly: 259.0999 deg

Mean motion: 14.07755232 rev/day

Mean motion (dot): 0.00001814 rev/day2

B* drag term: 0.00104 1/REarth

Two-line elements (TLE)

Creation date: July 4, 2025, 6:39 p.m.

Reference frame: TEME

Reference center: EARTH

Epoch: July 4, 2025, 8:12 a.m. UTC

TLE line 0: 0 COSMOS 1275 DEB

TLE line 1: 1 42200U 81053TQ 25185.34205323 .00001814 00000-0 10400-2 0 9999

TLE line 2: 2 42200 82.9821 41.1266 0068041 101.7819 259.0999 14.07755232592764

Live tracking on map

Real-time ground track for satellite COSMOS 1275 DEB.

In-orbit conjunctions

A list of the most updated potential collisions computed for object COSMOS 1275 DEB.

Target Orbit TCA Probability of collision Miss distance Type
THOR BURNER 2 R/B SSO 2024-09-29 19:36:07 0.0001714996 331.0 (m) ROCKET BODY
COSMOS 1275 DEB LEO 2024-09-05 18:01:06 0.0001256909 29.0 (m) DEBRIS

Associated space launch

Navigation satellite providing location information for the Tsiklon-B navigation system

COSMOS 1275 DEB was lifted into orbit during the mission ‘Kosmos-3M | Parus 27’, on board a Kosmos-3M space rocket.

The launch took place on June 4, 1981, 3:41 p.m. from 132/2.

For more information about the launch, click the button.

Launch to space Kosmos-3M | Parus 27
Kosmos-3M | Parus 27

Agency: N/A

Status: Launch Successful

Launch date: June 4, 1981, 3:41 p.m. UTC

Rocket: Kosmos-3M

Launch pad: 132/2

Location: Plesetsk Cosmodrome, Russian Federation

...

Latest news about this satellite

There are no fresh news available about this satellite. Check back as we update our databases every day.


Newsletter sign-up

Weekly statistics, charts and insights to help you stay on top of the space industry.